Tracking 20719 objects as of 24-May-2020
HD Live streaming from Space Station
objects crossing your sky now

IRIDIUM 171

Track IRIDIUM 171 now!
10-day predictions
IRIDIUM 171 is classified as:


NORAD ID: 43929
Int'l Code: 2019-002H
Perigee: 783.1 km
Apogee: 786.5 km
Inclination: 86.4 °
Period: 100.4 minutes
Semi major axis: 7155 km
RCS: Unknown
Launch date: January 11, 2019
Source: United States (US)
Launch site: AIR FORCE WESTERN TEST RANGE (AFWTR)
aabbcc
Your satellite tracking list
Your tracking list is empty




NASA's NSSDC Master Catalog

Two Line Element Set (TLE):
1 43929U 19002H   20144.73177585  .00000084  00000-0  22801-4 0  9992
2 43929  86.4023 199.4668 0002368 101.8230 258.3232 14.34215369 71415
Source of the keplerian elements: AFSPC